[[{"header":{"parameterUnit":"m.s-1","parameterCategory":1,"la1":30.2991,"la2":30.254,"lo1":-89.0895,"lo2":-89.0444,"dy":0.0017,"dx":0.0017,"nx":28,"ny":28,"refTime":"2023-11-04T09:00:00:Z","depth":0,"parameterNumber":2,"parameterNumberName":"U-component_of_WINDS"},"data":[0,0,0,0,0,0,0,0,0,0,0,0,0,0,0,0,0,0,0,0,0,0,0,0,0,0,0,0,0,0,0,0,0,0,0,0,0,0,0,0,0,0,0,0,0,0,0,0,0,0,0,0,0,0,0,0,0,0,-1.8467,-1.8467,0,-1.8542,-1.8543,-1.8544,-1.8484,-1.8481,-1.8478,-1.8476,-1.8556,-1.856,-1.8564,0,0,0,0,0,0,0,0,0,0,0,0,0,-1.8273,-1.8277,-1.8467,-1.8468,-1.8468,-1.8542,-1.8543,-1.8544,-1.8484,-1.8481,-1.8478,-1.8475,-1.8554,-1.8559,-1.8565,0,0,0,0,0,0,0,0,0,0,0,0,0,-1.8354,-1.8278,-1.8466,-1.8447,-1.8446,-1.8542,-1.8543,-1.8544,-1.8485,-1.8481,-1.8477,-1.8473,-1.8552,-1.8559,-1.8566,-1.8684,0,0,-1.8586,-1.8589,0,0,0,0,0,0,0,0,-1.8349,-1.8361,-1.8449,-1.8449,-1.8448,-1.8499,-1.8504,-1.8591,-1.8486,-1.847,-1.8476,-1.8471,-1.854,-1.8548,-1.857,-1.8688,-1.8691,-1.8587,-1.8591,-1.8594,-1.8596,0,0,0,0,0,0,0,-1.8344,-1.8357,-1.8496,-1.8451,-1.845,-1.8436,-1.8443,-1.852,-1.8526,-1.8471,-1.8467,-1.8477,-1.8539,-1.8564,-1.8572,-1.8693,-1.8587,-1.8593,-1.8597,-1.86,-1.8912,-1.8916,0,0,0,0,0,0,-1.834,-1.8353,-1.8494,-1.8499,-1.8388,-1.8442,-1.845,-1.8487,-1.8525,-1.8527,-1.848,-1.8474,-1.8554,-1.8564,-1.8574,-1.8717,-1.8594,-1.86,-1.8604,-1.8908,-1.8913,-1.8918,0,0,0,0,0,0,-1.8336,-1.8353,-1.8491,-1.8425,-1.8441,-1.845,-1.8491,-1.849,-1.8515,-1.8531,-1.8532,-1.8504,-1.8552,-1.8565,-1.8657,-1.8719,-1.8603,-1.8609,-1.8903,-1.891,-1.8916,-1.9002,0,0,0,0,0,0,-1.8331,-1.8352,-1.8397,-1.8426,-1.8445,-1.8573,-1.8495,-1.8495,-1.8527,-1.8519,-1.8554,-1.8557,-1.855,-1.8648,-1.8664,-1.8726,-1.8615,-1.8898,-1.8906,-1.8914,-1.8994,-1.9011,-1.9025,0,0,0,0,0,-1.8324,-1.8418,-1.8399,-1.8417,-1.8501,-1.8576,-1.8587,-1.8576,-1.8532,-1.8577,-1.8588,-1.8555,-1.8709,-1.8658,-1.8676,-1.8741,-1.8894,-1.8904,-1.8913,-1.8987,-1.9008,-1.9025,0,0,0,0,0,0,-1.8397,-1.8422,-1.8401,-1.8508,-1.854,-1.8566,-1.8623,-1.8598,-1.8645,-1.8636,-1.8621,-1.863,-1.8728,-1.8743,-1.8685,-1.8858,-1.8794,-1.8808,-1.8845,-1.8864,-1.888,-1.8875,-1.862,0,0,0,0,0,-1.8425,-1.8483,-1.8502,-1.8595,-1.8612,-1.8615,-1.8647,-1.8636,-1.8669,-1.8683,-1.87,-1.8735,-1.879,-1.8828,-1.888,-1.8995,-1.9003,-1.9049,-1.9064,-1.9077,-1.909,-1.9153,-1.9174,-1.8949,-1.8949,-1.8949,0,0,-1.8485,-1.8505,-1.8543,-1.861,-1.8634,-1.8695,-1.8627,-1.8695,-1.874,-1.8694,-1.8782,-1.8796,-1.8833,-1.8938,-1.8985,-1.8954,-1.9153,-1.9089,-1.9099,-1.9105,-1.9165,-1.9186,-1.9205,-1.8956,-1.8955,-1.8954,0,0,-1.8625,-1.8646,-1.8726,-1.8751,-1.8787,-1.8788,-1.8808,-1.8837,-1.8844,-1.8933,-1.8899,-1.8953,-1.905,-1.9078,-1.9105,-1.9256,-1.9229,-1.9273,-1.9356,-1.9417,-1.9435,-1.9451,-1.9506,-1.9526,-1.9285,-1.9285,-1.9286,0,-1.8695,-1.8785,-1.877,-1.8841,-1.8871,-1.883,-1.8912,-1.8937,-1.8989,-1.9012,-1.8976,-1.9096,-1.9118,-1.923,-1.9266,-1.9289,-1.9312,-1.927,-1.9433,-1.9449,-1.9464,-1.9516,-1.9537,-1.9291,-1.929,-1.929,-1.9289,0,-1.887,-1.8933,-1.8993,-1.9044,-1.9082,-1.9157,-1.9154,-1.9194,-1.9179,-1.9185,-1.9276,-1.9301,-1.9358,-1.9383,-1.9369,-1.9493,-1.9472,-1.9435,-1.9372,-1.9491,-1.954,-1.956,-1.9298,-1.9297,-1.9295,-1.9294,0,0,-1.906,-1.9101,-1.9123,-1.9146,-1.9183,-1.9233,-1.9306,-1.9361,-1.9396,-1.9433,-1.9496,-1.9578,-1.9544,-1.9575,-1.9564,-1.9618,-1.9737,-1.9574,-1.9575,-1.9605,-1.9876,-1.9906,-1.9929,-1.9718,-1.9722,-1.9725,-1.9874,0,-1.9203,-1.9331,-1.932,-1.9442,-1.9501,-1.9462,-1.9527,-1.9557,-1.9564,-1.9615,-1.9622,-1.9682,-1.9631,-1.965,-1.9701,-1.9712,-1.9792,-1.9701,-1.9778,-1.9781,-1.9772,-1.9955,-1.9986,-2.0125,-1.9893,-1.9896,-1.9898,0,-1.9388,-1.9431,-1.9559,-1.9587,-1.9612,-1.967,-1.9719,-1.9769,-1.9802,-1.9803,-1.9838,-1.9818,-1.9893,-1.9826,-1.993,-1.9869,-1.9899,-1.9909,-1.9914,-1.9923,-1.9848,-1.997,-2.0169,-2.0191,-1.9928,-1.9926,-1.9924,0,-1.9516,-1.9606,-1.9694,-1.9714,-1.9749,-1.9791,-1.9808,-1.9838,-1.9872,-1.9915,-1.9937,-1.9989,-2.0018,-2.0059,-2.0054,-2.0005,-2.0161,-2.0093,-2.0165,-2.0165,-2.0201,-2.0199,-2.041,-2.0218,-2.0218,-2.0217,-2.0217,0,-1.9678,-1.9759,-1.9752,-1.9807,-1.9895,-1.9881,-1.997,-1.9981,-2.0008,-2.0065,-2.0034,-2.0088,-2.0077,-2.0132,-2.0128,-2.0216,-2.0229,-2.0232,-2.0231,-2.0237,-2.0236,-2.0258,-2.0249,-2.0223,-2.0221,-2.022,-2.0219,0,-1.9837,-1.9836,-1.993,-1.9955,-1.9963,-2.0028,-2.0049,-2.0101,-2.0105,-2.0177,-2.0193,-2.02,-2.0262,-2.026,-2.0331,-2.0328,-2.0437,-2.0423,-2.0425,-2.0423,-2.0496,-2.049,-2.073,-2.0761,-2.0547,-2.0549,-2.055,0,-1.9942,-2.0003,-2.0034,-2.007,-2.0089,-2.0146,-2.0181,-2.0169,-2.0206,-2.0248,-2.0296,-2.0355,-2.0402,-2.0503,-2.0514,-2.0568,-2.0557,-2.0637,-2.0565,-2.0569,-2.056,-2.0558,-2.0564,-2.0652,-2.0654,-2.0656,-2.0658,0,-2.0129,-2.0125,-2.0175,-2.0226,-2.0267,-2.0306,-2.0342,-2.0373,-2.0365,-2.0409,-2.0471,-2.0508,-2.0579,-2.0639,-2.0691,-2.0709,-2.0683,-2.068,-2.07,-2.0707,-2.0707,-2.071,-2.0466,-2.0675,-2.0674,-2.0672,-2.0671,-2.0671,-2.0265,-2.0317,-2.0348,-2.0405,-2.043,-2.0465,-2.0515,-2.0524,-2.0576,-2.0634,-2.0623,-2.0694,-2.0726,-2.0793,-2.0816,-2.0871,-2.0843,-2.0872,-2.0879,-2.0887,-2.0896,-2.0696,-2.0881,-2.088,-2.088,-2.0879,-2.0879,0,-2.0452,-2.0469,-2.0521,-2.0573,-2.0618,-2.0587,-2.0626,-2.0666,-2.0728,-2.076,-2.0807,-2.0879,-2.0937,-2.0952,-2.1008,-2.105,-2.1039,-2.1065,-2.1063,-2.1068,-2.0917,-2.0895,-2.1072,-2.1072,-2.1072,-2.1072,-2.1072,-2.1072,-2.0554,-2.0642,-2.0642,-2.0742,-2.0758,-2.0827,-2.0852,-2.0884,-2.0909,-2.0991,-2.1038,-2.1048,-2.1073,-2.113,-2.1182,-2.1185,-2.1208,-2.1239,-2.1238,-2.1097,-2.1078,-2.106,-2.1039,-2.1243,-2.1244,-2.1383,-2.1385,-2.1386]},{"header":{"parameterUnit":"m.s-1","parameterCategory":1,"la1":30.2991,"la2":30.254,"lo1":-89.0895,"lo2":-89.0444,"dy":0.0017,"dx":0.0017,"nx":28,"ny":28,"refTime":"2023-11-04T09:00:00:Z","depth":0,"parameterNumber":3,"parameterNumberName":"V-component_of_WINDS"},"data":[0,0,0,0,0,0,0,0,0,0,0,0,0,0,0,0,0,0,0,0,0,0,0,0,0,0,0,0,0,0,0,0,0,0,0,0,0,0,0,0,0,0,0,0,0,0,0,0,0,0,0,0,0,0,0,0,0,0,-4.4223,-4.4224,0,-4.4294,-4.4295,-4.4296,-4.4234,-4.4232,-4.4229,-4.4227,-4.4294,-4.4298,-4.4302,0,0,0,0,0,0,0,0,0,0,0,0,0,-4.4028,-4.4032,-4.4223,-4.4224,-4.4225,-4.4294,-4.4295,-4.4296,-4.4235,-4.4232,-4.4229,-4.4226,-4.4293,-4.4298,-4.4303,0,0,0,0,0,0,0,0,0,0,0,0,0,-4.4107,-4.4033,-4.4223,-4.4203,-4.4202,-4.4294,-4.4295,-4.4296,-4.4235,-4.4232,-4.4228,-4.4224,-4.4291,-4.4297,-4.4304,-4.4418,0,0,-4.4323,-4.4325,0,0,0,0,0,0,0,0,-4.4103,-4.4114,-4.4205,-4.4204,-4.4203,-4.4252,-4.4251,-4.4337,-4.4236,-4.4222,-4.4227,-4.4222,-4.4283,-4.4289,-4.4311,-4.4421,-4.4424,-4.4323,-4.4327,-4.433,-4.4331,0,0,0,0,0,0,0,-4.4097,-4.4111,-4.4251,-4.4206,-4.4205,-4.4188,-4.4195,-4.4267,-4.4273,-4.4223,-4.4219,-4.4229,-4.4282,-4.4305,-4.4312,-4.4425,-4.4323,-4.4328,-4.4332,-4.4335,-4.463,-4.4634,0,0,0,0,0,0,-4.4095,-4.4107,-4.4249,-4.4253,-4.4143,-4.4195,-4.4203,-4.424,-4.4272,-4.4273,-4.4232,-4.4225,-4.4296,-4.4305,-4.4314,-4.4449,-4.4329,-4.4335,-4.4339,-4.4626,-4.4631,-4.4636,0,0,0,0,0,0,-4.4091,-4.4108,-4.4246,-4.4179,-4.4195,-4.4202,-4.4244,-4.4243,-4.4267,-4.4278,-4.4278,-4.4255,-4.4294,-4.4305,-4.4392,-4.4451,-4.4338,-4.4344,-4.4621,-4.4628,-4.4634,-4.4721,0,0,0,0,0,0,-4.4085,-4.4107,-4.4152,-4.418,-4.4199,-4.4325,-4.4248,-4.4247,-4.4278,-4.4271,-4.43,-4.4301,-4.4292,-4.4384,-4.4399,-4.4457,-4.4349,-4.4616,-4.4624,-4.4632,-4.4713,-4.473,-4.4744,0,0,0,0,0,-4.4079,-4.4173,-4.4155,-4.4172,-4.4256,-4.4328,-4.4339,-4.4327,-4.4283,-4.4327,-4.4335,-4.43,-4.4442,-4.4393,-4.441,-4.4471,-4.4612,-4.4622,-4.4631,-4.4706,-4.4727,-4.4744,0,0,0,0,0,0,-4.4149,-4.4176,-4.4156,-4.4263,-4.4294,-4.4318,-4.4373,-4.4349,-4.4392,-4.4383,-4.4365,-4.4372,-4.4464,-4.4476,-4.4421,-4.4583,-4.452,-4.4533,-4.4572,-4.4591,-4.4606,-4.4601,-4.4354,0,0,0,0,0,-4.4177,-4.4236,-4.4256,-4.4348,-4.4365,-4.4367,-4.4398,-4.4386,-4.4417,-4.443,-4.4443,-4.4473,-4.4524,-4.4558,-4.4606,-4.4715,-4.4719,-4.4765,-4.478,-4.4793,-4.4804,-4.4862,-4.4882,-4.4666,-4.4666,-4.4666,0,0,-4.4236,-4.4258,-4.4296,-4.4362,-4.4385,-4.4445,-4.4378,-4.4444,-4.4487,-4.4439,-4.4523,-4.4534,-4.4565,-4.4664,-4.4708,-4.4677,-4.4865,-4.4805,-4.4814,-4.4819,-4.4873,-4.4894,-4.4912,-4.4673,-4.4671,-4.467,0,0,-4.4372,-4.4396,-4.4475,-4.4499,-4.4535,-4.4536,-4.4555,-4.4583,-4.4589,-4.4673,-4.4638,-4.4688,-4.4776,-4.48,-4.4824,-4.497,-4.494,-4.4986,-4.5066,-4.5122,-4.5139,-4.5154,-4.5205,-4.5224,-4.4997,-4.4997,-4.4997,0,-4.444,-4.453,-4.4518,-4.4587,-4.4616,-4.4577,-4.4656,-4.4679,-4.4728,-4.4749,-4.4714,-4.4824,-4.4843,-4.4946,-4.4982,-4.5002,-4.5022,-4.4982,-4.5138,-4.5153,-4.5166,-4.5215,-4.5235,-4.5002,-4.5002,-4.5001,-4.5001,0,-4.4611,-4.4674,-4.4733,-4.4784,-4.482,-4.4893,-4.489,-4.4928,-4.4913,-4.4917,-4.5002,-4.5023,-4.5074,-4.5097,-4.5083,-4.5198,-4.5178,-4.5141,-4.5077,-4.5193,-4.5238,-4.5257,-4.501,-4.5008,-4.5007,-4.5005,0,0,-4.4794,-4.4837,-4.4859,-4.4881,-4.4918,-4.4966,-4.5036,-4.5088,-4.512,-4.5155,-4.5213,-4.5289,-4.5255,-4.5282,-4.5269,-4.5319,-4.5432,-4.5275,-4.5276,-4.5303,-4.556,-4.5588,-4.561,-4.5412,-4.5416,-4.5419,-4.5557,0,-4.4932,-4.5058,-4.5049,-4.5166,-4.5224,-4.5186,-4.5248,-4.5276,-4.5281,-4.5329,-4.5333,-4.5388,-4.5339,-4.5355,-4.5402,-4.5409,-4.5483,-4.5398,-4.5465,-4.5467,-4.5458,-4.5634,-4.5663,-4.5793,-4.5575,-4.5578,-4.558,0,-4.5111,-4.5154,-4.5278,-4.5306,-4.5329,-4.5385,-4.5431,-4.5478,-4.5508,-4.5508,-4.5539,-4.5518,-4.5587,-4.5522,-4.5617,-4.5559,-4.5585,-4.5592,-4.5597,-4.5603,-4.5531,-4.5644,-4.5834,-4.5854,-4.5608,-4.5606,-4.5604,0,-4.5232,-4.532,-4.5406,-4.5426,-4.5461,-4.5501,-4.5516,-4.5543,-4.5575,-4.5614,-4.5634,-4.5681,-4.5706,-4.5742,-4.5733,-4.5687,-4.5829,-4.5764,-4.583,-4.5831,-4.5862,-4.586,-4.6059,-4.5879,-4.5879,-4.5879,-4.5878,0,-4.5387,-4.5464,-4.5461,-4.5514,-4.5598,-4.5586,-4.5669,-4.568,-4.5704,-4.5757,-4.5726,-4.5776,-4.5762,-4.581,-4.5803,-4.5882,-4.5894,-4.5895,-4.5892,-4.5898,-4.5898,-4.5914,-4.5905,-4.5884,-4.5883,-4.5882,-4.5881,0,-4.5537,-4.5538,-4.5629,-4.5654,-4.5663,-4.5724,-4.5745,-4.5793,-4.5796,-4.5863,-4.5878,-4.5881,-4.5937,-4.5932,-4.5993,-4.5989,-4.6086,-4.6073,-4.6077,-4.6074,-4.614,-4.6134,-4.6357,-4.6386,-4.6187,-4.6189,-4.6191,0,-4.5636,-4.5695,-4.5727,-4.5761,-4.578,-4.5835,-4.5868,-4.5857,-4.5891,-4.593,-4.5974,-4.6027,-4.6069,-4.6158,-4.6165,-4.6212,-4.6199,-4.6274,-4.6206,-4.6209,-4.62,-4.6197,-4.6202,-4.6288,-4.629,-4.6292,-4.6293,0,-4.5812,-4.5809,-4.5858,-4.5908,-4.5948,-4.5985,-4.6019,-4.6048,-4.604,-4.608,-4.6138,-4.617,-4.6234,-4.6286,-4.6331,-4.6344,-4.6318,-4.6315,-4.6332,-4.6339,-4.6339,-4.6339,-4.6113,-4.6309,-4.6308,-4.6307,-4.6306,-4.6305,-4.5939,-4.5989,-4.602,-4.6075,-4.61,-4.6133,-4.618,-4.6189,-4.6237,-4.629,-4.6279,-4.6344,-4.6371,-4.6428,-4.6446,-4.6495,-4.6467,-4.6493,-4.65,-4.6506,-4.6514,-4.6331,-4.6503,-4.6502,-4.6502,-4.6501,-4.6501,0,-4.6113,-4.6131,-4.6182,-4.6232,-4.6275,-4.6247,-4.6283,-4.6321,-4.6378,-4.6407,-4.6449,-4.6514,-4.6565,-4.6576,-4.6624,-4.6661,-4.6649,-4.6674,-4.6671,-4.6674,-4.6536,-4.6516,-4.6682,-4.6682,-4.6682,-4.6682,-4.6682,-4.6682,-4.6209,-4.6292,-4.6294,-4.6389,-4.6405,-4.647,-4.6493,-4.6522,-4.6545,-4.662,-4.6663,-4.667,-4.6691,-4.674,-4.6785,-4.6787,-4.6805,-4.6835,-4.6832,-4.6702,-4.6684,-4.6667,-4.6648,-4.6839,-4.6839,-4.6966,-4.6967,-4.6968]}]]